Probability
0 0 0 0 0 0 0 0 0 0 3 12 22 30 39 45 40 31 20 11 5 1 0 0 0 0 0 0 0 0 0 0 0 0 0 0 0 0 0 0 0 0 0 0
0 0 0 0 0 0 0 0 1 4 13 29 44 54 59 56 46 32 19 9 3 1 0 0 0 0 0 0 0 0 0 0 0 0 0 0 0 0 0 0 0 0 0 0
0 0 0 0 0 0 0 1 5 13 25 39 50 55 58 57 46 30 14 5 1 0 0 0 0 0 0 0 0 0 0 0 0 0 0 0 0 0 0 0 0 0 0 0
0 0 0 0 0 0 0 2 7 15 21 25 25 24 28 32 29 17 6 2 0 0 0 0 0 0 0 0 0 0 0 0 0 0 0 0 0 0 0 0 0 0 0 0
0 0 0 0 0 0 0 1 4 7 8 8 5 4 5 8 7 4 1 0 0 0 0 0 0 0 0 0 0 0 0 0 0 0 0 0 0 0 0 0 0 0 0 0
0 0 0 0 0 0 0 0 0 1 2 2 2 1 0 0 0 0 0 0 0 0 0 0 0 0 0 0 0 0 0 0 0 0 0 0 0 0 0 0 0 0 0 0
0 0 0 0 0 0 0 0 0 1 1 1 1 1 0 0 0 0 0 0 0 0 0 0 0 0 0 0 0 0 0 0 0 0 0 0 0 0 0 0 0 0 0 0
0 0 0 0 0 0 0 0 0 0 0 0 0 0 0 0 0 0 0 0 0 0 0 0 0 0 0 0 0 0 0 0 0 0 0 0 0 0 0 0 0 0 0 0
0 0 0 0 0 0 0 0 0 0 0 0 0 0 0 0 0 0 0 0 0 0 0 0 0 0 0 0 0 0 0 0 0 0 0 0 0 0 0 0 0 0 0 0
0 0 0 0 0 0 0 0 0 0 0 0 0 0 0 0 0 0 0 0 0 0 0 0 0 0 0 0 0 0 0 0 0 0 0 0 0 0 0 0 0 0 0 0
0 0 0 0 0 0 0 0 0 0 0 0 0 0 0 0 0 0 0 0 0 0 0 0 0 0 0 0 0 0 0 0 0 0 0 0 0 0 0 0 0 0 0 0
0 0 0 0 0 0 0 0 0 0 0 0 0 0 0 0 0 0 0 0 0 0 0 0 0 0 0 0 0 0 0 0 0 0 0 0 0 0 0 0 0 0 0 0
0 0 0 0 0 0 0 0 0 0 0 0 0 0 0 0 0 0 0 0 0 0 0 0 0 0 0 0 0 0 0 0 0 0 0 0 0 0 0 0 0 0 0 0
0 0 0 0 0 0 0 0 0 0 0 0 0 0 0 0 0 0 0 0 0 0 0 0 0 0 0 0 0 0 0 0 0 0 0 0 0 0 0 0 0 0 0 0
0 0 0 0 0 0 0 0 0 0 0 0 0 0 0 0 0 0 0 0 0 0 0 0 0 0 0 0 0 0 0 0 0 0 0 0 0 0 0 0 0 0 0 0
0 0 0 0 0 0 0 0 0 0 0 0 0 0 0 0 0 0 0 0 0 0 0 0 0 0 0 0 0 0 0 0 0 0 0 0 0 0 0 0 0 0 0 0
0 0 0 0 0 0 0 0 0 0 0 0 0 0 0 0 0 0 0 0 0 0 0 0 0 0 0 0 0 0 0 0 0 0 0 0 0 0 0 0 0 0 0 0
0 0 0 0 0 0 0 0 0 0 0 0 0 0 0 0 0 0 0 0 0 0 0 0 0 0 0 0 0 0 0 0 0 0 0 0 0 0 0 0 0 0 0 0
0 0 0 0 0 0 0 0 0 0 0 0 0 0 0 0 0 0 0 0 0 0 0 0 0 0 0 0 0 0 0 0 0 0 0 0 0 0 0 0 0 0 0 0
0 0 0 0 0 0 0 0 0 0 0 0 0 0 0 0 0 0 0 0 0 0 0 0 0 0 0 0 0 0 0 0 0 0 0 0 0 0 0 0 0 0 0 0
0 0 0 0 0 0 0 0 0 0 0 0 0 0 0 0 0 0 0 0 0 0 0 0 0 0 0 0 0 0 0 0 0 0 0 0 0 0 0 0 0 0 0 0
0 0 0 0 0 0 0 0 0 0 0 0 0 0 0 0 0 0 0 0 0 0 0 0 0 0 0 0 0 0 0 0 0 0 0 0 0 0 0 0 0 0 0 0
0 0 0 0 0 0 0 0 0 0 0 0 0 0 0 0 0 0 0 0 0 0 0 0 0 0 0 0 0 0 0 0 0 0 0 0 0 0 0 0 0 0 0 0
0 0 0 0 0 0 0 0 0 0 0 0 0 0 0 0 0 0 0 0 0 0 0 0 0 0 0 0 0 0 0 0 0 0 0 0 0 0 0 0 0 0 0 0
0 0 0 0 0 0 0 0 0 0 0 0 0 0 0 0 0 0 0 0 0 0 0 0 0 0 0 0 0 0 0 0 0 0 0 0 0 0 0 0 0 0 0 0
0 0 0 0 0 0 0 0 0 0 0 0 0 0 0 0 0 0 0 0 0 0 0 0 0 0 0 0 0 0 0 0 0 0 0 0 0 0 0 0 0 0 0 0
0 0 0 0 0 0 0 0 0 0 0 0 0 0 0 0 0 0 0 0 0 0 0 0 0 0 0 0 0 0 0 0 0 0 0 0 0 0 0 0 0 0 0 0
Wind_Speed
17 19 17 14 12 8 8 13 14 11 6 8 7 6 5 8 11 11 13 14 15 14 13 12 12 11 10 9 8 7 5 4 2 1 1 1 3 4 4 5 6 6 6 7
16 17 18 19 17 16 15 15 15 13 5 10 12 13 12 8 10 12 12 14 15 15 14 13 12 11 10 8 6 4 2 0 1 1 1 2 2 3 4 5 5 6 7 7
13 16 17 19 17 17 16 10 10 8 11 12 14 16 15 9 5 9 12 14 14 14 13 12 11 10 9 5 1 1 1 1 1 1 3 3 4 5 5 6 6 6 6 6
11 13 17 13 7 4 4 11 11 9 10 10 11 14 16 14 10 11 14 14 13 13 13 11 10 8 5 2 2 3 2 2 2 2 3 3 5 6 5 5 5 5 5 5
10 13 14 8 7 6 3 9 12 10 9 9 6 8 14 15 13 13 14 14 13 12 12 10 7 5 3 2 2 2 3 3 4 4 4 5 6 6 6 5 4 5 5 5
10 12 9 5 5 6 4 5 10 10 10 10 9 3 6 10 12 14 14 13 13 11 10 8 4 3 3 3 3 4 5 5 5 5 4 5 6 5 5 4 4 5 6 5
12 12 3 6 5 7 4 4 8 8 8 8 7 9 9 11 12 13 14 13 11 10 7 5 4 3 4 5 5 5 5 4 4 4 3 6 5 3 4 5 4 5 6 6
7 9 2 9 7 7 6 5 6 7 6 10 14 14 13 12 12 13 13 11 9 7 5 4 4 5 6 5 4 4 4 4 4 5 6 6 5 4 4 5 5 6 6 7
2 1 3 4 5 5 6 7 8 7 5 11 14 14 14 13 12 12 11 8 6 7 7 6 5 5 5 5 4 4 4 4 4 6 6 6 5 5 5 5 5 6 6 7
4 2 1 3 6 8 8 7 7 4 5 13 16 16 15 13 11 9 8 8 8 8 8 6 5 5 5 5 5 5 4 3 4 6 6 5 4 5 5 6 6 6 6 6
8 7 7 8 10 9 8 6 6 6 10 15 17 16 15 12 10 9 9 8 8 7 7 8 7 7 6 5 5 4 3 3 5 6 5 4 4 4 5 5 4 4 5 5
4 6 5 6 8 7 5 6 7 11 14 15 15 16 14 11 9 9 9 8 7 8 8 8 8 8 7 7 6 5 4 5 5 5 4 3 2 2 1 1 4 3 3 4
4 6 5 5 7 7 8 10 12 14 15 14 13 12 12 10 9 8 8 8 9 9 9 9 9 9 8 7 6 6 6 5 4 4 3 2 2 2 1 3 6 6 3 4
3 3 4 7 9 11 13 13 13 13 12 12 11 11 11 11 10 9 8 9 10 10 9 9 9 8 7 6 5 5 5 4 3 3 2 2 1 1 2 3 2 1 1 3
7 8 10 12 13 13 12 13 12 11 11 12 12 12 12 10 9 8 8 9 10 9 10 9 8 7 7 7 6 6 6 4 3 2 2 2 1 2 3 4 4 4 5 5
10 12 14 14 14 13 12 12 13 13 12 12 11 10 9 8 8 8 9 9 9 10 9 8 7 6 5 5 5 4 3 1 4 4 4 4 4 5 5 5 5 4 6 7
11 12 14 14 14 13 12 12 12 12 12 12 11 10 10 9 9 10 10 11 10 9 8 6 5 5 5 4 2 2 2 2 1 4 6 6 6 6 6 6 5 5 5 6
10 11 12 13 12 12 12 12 12 12 11 12 11 10 10 9 10 10 10 10 10 9 8 7 7 6 7 7 7 5 4 4 5 6 5 5 6 6 7 7 7 7 5 5
12 12 12 12 12 12 12 12 12 12 11 10 10 10 10 10 10 10 9 9 10 9 7 6 3 4 5 5 7 3 5 6 6 6 6 5 6 7 7 7 7 7 7 6
12 13 14 14 14 13 13 13 12 11 10 10 10 11 10 10 10 10 9 9 8 7 6 3 3 4 5 7 8 5 7 8 8 7 7 7 7 7 7 7 7 7 7 6
13 14 15 15 14 14 13 13 12 11 11 11 11 11 10 10 10 9 9 9 7 5 4 2 4 6 7 9 6 7 8 7 7 7 7 7 7 7 7 7 7 7 7 6
13 14 15 15 14 13 11 11 11 12 12 11 12 11 9 9 10 10 9 7 6 2 3 7 7 8 12 11 6 8 8 8 7 6 6 6 7 7 7 7 7 7 7 7
13 13 14 14 13 12 11 10 11 11 12 12 11 9 7 8 8 8 7 6 7 8 7 7 7 10 15 6 8 9 9 8 8 7 7 7 7 7 7 7 7 7 7 7
13 13 13 13 12 12 11 10 10 9 11 11 10 8 7 7 8 9 9 10 9 9 7 4 6 10 9 5 9 9 9 8 8 8 8 8 8 8 7 7 7 7 8 9
13 13 13 12 11 9 10 10 10 10 10 9 10 8 6 8 9 9 9 10 8 8 6 2 4 7 3 8 8 8 8 7 8 8 8 8 8 8 8 7 8 8 8 8
11 10 10 9 8 8 9 8 8 8 8 9 8 8 8 9 11 9 8 9 9 6 5 3 4 4 7 8 8 8 7 6 7 8 8 8 9 9 8 8 10 8 8 8
11 9 7 8 9 8 8 7 7 8 8 8 9 9 9 9 9 9 9 8 7 5 4 5 6 7 7 7 7 7 7 7 7 7 7 7 8 8 8 10 8 8 8 9
Wind_Direction
273 281 283 277 273 271 292 295 291 300 359 43 19 12 50 100 116 125 126 125 123 119 114 110 103 96 87 73 58 47 50 61 53 24 344 6 22 21 25 17 8 9 6 7
280 276 278 278 278 278 268 267 279 289 36 52 40 39 49 81 125 133 132 127 123 119 116 112 106 100 91 79 61 36 22 89 147 274 32 50 32 40 37 25 14 10 13 12
274 277 277 269 274 281 284 310 346 12 45 36 41 40 37 39 87 128 126 124 122 119 115 110 106 104 104 107 122 231 220 204 166 89 75 50 28 41 31 24 22 12 6 9
282 277 263 269 290 341 353 45 36 43 40 40 56 62 47 41 64 96 112 115 115 114 111 108 107 108 117 148 206 209 191 135 96 90 88 65 50 36 34 31 18 354 357 4
272 268 264 267 24 3 355 69 35 29 20 17 26 88 57 45 65 88 100 105 108 110 111 110 113 122 139 197 204 151 118 96 75 61 53 50 48 32 31 14 4 349 360 347
253 261 270 59 26 358 309 104 31 23 12 0 349 354 68 65 79 89 97 103 108 110 110 113 129 164 178 151 116 97 87 78 69 57 47 57 55 34 18 0 6 352 350 340
246 254 259 36 329 300 290 59 19 15 10 19 47 74 98 94 94 99 103 107 109 111 113 127 154 157 128 107 97 95 98 97 80 48 48 73 58 42 22 5 1 354 351 350
260 256 222 23 11 31 33 17 14 12 34 86 103 105 106 105 107 109 110 112 114 117 123 140 140 118 103 101 108 115 111 95 81 62 41 48 43 45 31 7 8 11 3 359
10 31 73 51 35 30 9 0 2 4 63 116 120 118 115 114 114 116 121 126 136 138 138 142 139 133 125 133 137 120 99 86 82 87 75 48 38 39 30 20 20 15 6 358
295 202 127 29 24 23 17 2 352 5 111 125 125 124 122 121 123 130 143 149 151 146 139 136 135 128 115 109 101 88 82 87 100 92 84 69 45 41 40 24 21 14 5 353
288 316 342 33 25 11 8 16 38 75 108 123 126 126 127 131 143 158 161 155 149 139 125 115 111 105 97 88 82 90 87 83 89 80 71 68 68 47 45 60 40 8 3 347
321 18 354 354 9 13 33 62 88 102 107 115 123 129 134 143 152 151 144 141 132 121 113 109 104 92 79 68 55 41 60 64 72 68 59 55 81 138 107 121 190 231 277 329
352 9 20 35 47 62 81 92 102 110 117 121 127 133 135 136 134 128 125 123 119 116 111 104 95 85 76 70 71 66 60 54 62 60 57 46 29 35 116 194 218 229 242 349
38 45 65 75 85 92 99 103 106 112 119 125 129 127 123 118 115 116 119 121 120 118 113 104 95 88 82 73 64 71 86 80 74 81 72 62 46 29 35 34 32 16 209 26
77 95 109 109 106 106 109 113 115 120 122 120 116 115 117 120 125 130 130 125 123 117 108 101 96 90 85 78 67 51 46 42 18 44 57 43 30 40 56 51 35 21 13 18
116 118 121 121 120 120 121 122 119 119 119 118 118 122 127 129 124 119 119 118 111 102 98 100 102 105 111 125 134 129 111 31 326 12 30 24 32 37 44 46 43 36 31 19
132 133 134 133 133 132 131 129 127 128 130 129 130 133 130 121 111 104 100 97 97 99 99 98 90 85 72 52 42 78 74 100 242 37 41 22 23 33 41 44 40 45 56 45
132 137 140 141 141 138 135 130 126 125 126 129 132 129 121 112 105 103 104 106 103 95 85 75 58 52 54 37 1 5 30 38 41 44 56 35 24 37 42 42 38 39 53 63
127 131 136 138 135 130 127 126 125 124 127 129 125 118 112 110 112 116 119 116 107 95 87 85 51 66 63 40 329 339 35 42 43 42 42 51 42 40 43 44 41 40 43 43
124 127 129 130 130 127 124 126 127 126 126 124 120 117 114 114 112 104 95 87 86 98 111 99 93 67 46 23 337 31 49 43 40 36 38 40 44 42 41 43 43 42 42 43
127 128 127 126 127 127 127 128 128 130 130 126 121 117 116 117 117 114 105 98 95 96 115 112 51 51 34 348 332 45 52 48 46 42 39 40 44 45 44 42 42 41 40 38
127 125 124 125 125 124 126 131 134 133 129 126 124 125 128 124 110 97 91 98 96 55 69 78 64 33 359 335 41 52 48 47 48 46 44 47 47 45 44 46 44 41 38 34
125 125 127 129 130 132 134 134 133 131 130 130 131 134 130 123 122 117 108 94 84 73 71 67 28 3 340 357 53 52 50 45 43 43 44 49 52 49 45 47 48 44 41 36
131 132 132 133 135 137 136 135 133 134 137 137 139 139 138 126 109 101 101 90 82 85 84 60 350 340 327 55 56 50 44 39 42 46 42 44 49 49 49 46 46 43 42 43
138 137 139 140 141 139 136 137 138 143 142 136 140 148 129 111 114 111 109 112 124 114 114 122 295 310 28 70 74 72 63 48 38 40 48 46 47 48 47 49 48 47 41 42
143 145 145 149 141 143 149 152 152 149 145 145 146 133 114 112 116 122 131 133 130 148 154 146 112 106 77 71 64 61 65 67 61 54 47 46 50 51 47 43 50 52 49 42
150 146 149 151 154 161 162 160 156 155 150 142 133 130 132 135 137 138 137 144 165 175 137 106 90 84 80 77 73 69 64 59 54 52 52 52 53 51 52 50 46 46 54 54